This demonstration page uses our WeatherBlox Daily Observations layout. Learn more.

Left ArrowRight Arrow

Hourly Observations for June 12, 2017

Temp ( °F °C ) Dew Point ( °F °C ) Humidity (%) Winds ( mph kmh ) Pressure ( in mb ) Visibility ( mi km ) Precip ( " mm )
12:53 am 00:53 Clear 52 11.1 40 4.4 64 64 ESE 6 9 29.83 1010 10 16 0.00 0.00
1:53 am 01:53 Clear 49 9.4 40 4.4 71 71 ESE 6 9 29.84 1010 10 16 0.00 0.00
2:53 am 02:53 Clear 50 10 39 3.9 66 66 E 10 17 29.83 1010 10 16 0.00 0.00
3:53 am 03:53 Clear 50 10 40 4.4 68 68 E 7 11 29.83 1010 10 16 0.00 0.00
4:53 am 04:53 Clear 50 10 39 3.9 66 66 E 13 20 29.83 1010 10 16 0.00 0.00
5:53 am 05:53 Sunny 50 10 40 4.4 68 68 E 8 13 29.84 1010 10 16 0.00 0.00
6:53 am 06:53 Sunny 57 13.9 41 5 55 55 ENE 9 15 29.83 1010 10 16 0.00 0.00
7:53 am 07:53 Sunny 62 16.7 42 5.6 48 48 E 13 20 29.82 1010 10 16 0.00 0.00
8:53 am 08:53 Sunny 69 20.6 42 5.6 38 38 E 12 19 29.82 1010 10 16 0.00 0.00
9:53 am 09:53 Sunny 73 22.8 39 3.9 29 29 E 17 28 29.79 1009 10 16 0.00 0.00
10:53 am 10:53 Sunny 74 23.3 38 3.3 27 27 E 17 28 29.77 1008 10 16 0.00 0.00
11:53 am 11:53 Sunny 78 25.6 32 0 19 19 E 18 30 29.74 1007 10 16 0.00 0.00
12:53 pm 12:53 Sunny 79 26.1 29 -1.7 16 16 ESE 24 39 29.72 1007 10 16 0.00 0.00
1:53 pm 13:53 Sunny 78 25.6 31 -0.6 18 18 E 20 31 29.71 1006 10 16 0.00 0.00
2:53 pm 14:53 Sunny 82 27.8 34 1.1 18 18 E 18 30 29.67 1005 10 16 0.00 0.00
3:53 pm 15:53 Sunny 79 26.1 36 2.2 21 21 E 21 33 29.65 1004 10 16 0.00 0.00
4:53 pm 16:53 Sunny 81 27.2 39 3.9 22 22 E 17 28 29.62 1003 10 16 0.00 0.00
5:53 pm 17:53 Sunny 83 28.3 42 5.6 24 24 E 18 30 29.60 1002 10 16 0.00 0.00
6:53 pm 18:53 Mostly Sunny 81 27.2 49 9.4 33 33 E 18 30 29.57 1002 10 16 0.00 0.00
7:53 pm 19:53 Sunny 78 25.6 48 8.9 35 35 ESE 20 31 29.58 1002 10 16 0.00 0.00
8:53 pm 20:53 Mostly Cloudy 75 23.9 48 8.9 39 39 ESE 16 26 29.57 1002 10 16 0.00 0.00
9:53 pm 21:53 Partly Cloudy 72 22.2 50 10 46 46 E 16 26 29.58 1002 10 16 0.00 0.00
10:35 pm 22:35 Cloudy with Nearby Thunderstorms 71 21.7 51 10.6 49 49 E 17 28 29.50 999 10 16 0.00 0.00
10:53 pm 22:53 Cloudy 70 21.1 51 10.6 51 51 E 21 33 29.57 1001 10 16 0.00 0.00
11:07 pm 23:07 Cloudy with Nearby Thunderstorms 70 21.1 51 10.6 51 51 E 23 37 29.53 1000 10 16 0.00 0.00
11:22 pm 23:22 Cloudy 70 21 52 11 53 53 E 23 37 29.53 1000 10 16 0.00 0.00
11:53 pm 23:53 Cloudy 69 20.6 50 10 51 51 SE 12 19 29.60 1002 10 16 0.00 0.00

Powered by AerisWeather